Flag for U.S.A. Weather past 2 weeks in Honolulu, Hawaii, U.S.A.

Now
86 °F

Scattered clouds.


Feels Like: 92 °F
Forecast: 69 / 86 °F
Wind: 12 mph from South

Location: Honolulu International Airport

Current Time: Sep 1, 2014 at 12:50:34 PM

Latest Report: Sep 1, 2014 at 11:53 AM


Visibility: 10 mi

Pressure: 30.02 "Hg

Humidity: 63%

Dew point: 72 °F

Location of HonoluluLocation

Historic Weather in Honolulu — Graph

°F

Honolulu temperature yesterday

Maximum temperature yesterday: 87 °F (at 1:53 PM)
Minimum temperature yesterday: 74 °F (at 5:53 AM)
Average temperature yesterday: 81 °F

Past Weeks' High & Low Weather Summary

 TemperatureHumidityPressure
High90 °F (Aug 23, 1:53 PM)88% (Aug 24, 5:53 AM)30.04 "Hg (Aug 24, 5:53 AM)
Low74 °F (Aug 31, 5:53 AM)39% (Aug 23, 1:53 PM)29.83 "Hg (Aug 28, 3:53 PM)
Average81 °F62%29.95 "Hg
* Reported Aug 17 11:53 AM — Sep 1 11:53 AM, Honolulu, Weather by CustomWeather, © 2014

Note: Actual official high and low records may vary slightly from our data, if they occured in-between our weather recording intervals... More about our weather records

Advertising

Honolulu weather history for previous 24 hours

 ConditionsComfort  
Time TempWeatherWind HumidityBarometerVisibility
11:53 AM
Sep 1
86 °FScattered clouds.12 mph63%30.02 "Hg10 mi
10:53 AM86 °FScattered clouds.8 mph61%30.03 "Hg10 mi
9:53 AM84 °FScattered clouds.6 mph61%30.03 "Hg10 mi
8:53 AM83 °FScattered clouds.3 mph68%30.03 "Hg10 mi
7:53 AM80 °FScattered clouds.5 mph71%30.02 "Hg10 mi
6:53 AM76 °FScattered clouds.3 mph80%30.01 "Hg10 mi
5:53 AM74 °FPassing clouds.3 mph82%29.99 "Hg10 mi
4:53 AM74 °FPassing clouds.No wind82%29.98 "Hg10 mi
3:53 AM76 °FPassing clouds.6 mph80%29.98 "Hg10 mi
2:53 AM76 °FPassing clouds.3 mph80%29.99 "Hg10 mi
1:53 AM76 °FPassing clouds.3 mph80%30.00 "Hg10 mi
12:53 AM78 °FPassing clouds.5 mph76%30.01 "Hg10 mi
11:53 PM
Aug 31
79 °FPassing clouds.3 mph72%30.02 "Hg10 mi
10:53 PM80 °FPassing clouds.7 mph69%30.03 "Hg10 mi
9:53 PM80 °FPassing clouds.3 mph69%30.03 "Hg10 mi
8:53 PM80 °FPassing clouds.3 mph69%30.02 "Hg10 mi
7:53 PM81 °FPassing clouds.5 mph65%30.01 "Hg10 mi
6:53 PM83 °FPassing clouds.12 mph63%29.98 "Hg10 mi
5:53 PM85 °FScattered clouds.8 mph57%29.96 "Hg10 mi
4:53 PM84 °FPartly sunny.13 mph63%29.95 "Hg10 mi
3:53 PM85 °FBroken clouds.13 mph53%29.94 "Hg10 mi
2:53 PM87 °FScattered clouds.16 mph48%29.94 "Hg10 mi
1:53 PM87 °FScattered clouds.15 mph57%29.95 "Hg10 mi
12:53 PM85 °FScattered clouds.14 mph61%29.97 "Hg10 mi
Weather by CustomWeather, © 2014

See weather overviewHow to use our weather pages